Regional Weather Roundup
Issued by NWS

Home | Current Version | Previous Version | Text Only | Print | Product List | Glossary On
Versions: 1 2 3 4 5 6 7 8 9 10 11 12 13 14 15 16 17 18 19 20 21 22 23 24 25 26 27 28 29 30 31 32 33 34 35 36 37 38 39 40 41 42 43 44 45 46 47 48 49 50
000
ASUS43 KDMX 051107
RWRIA

WEATHER ROUNDUP FOR IOWA
NATIONAL WEATHER SERVICE DES MOINES IA
600 AM CDT WED AUG 05 2015

NOTE: "FAIR" INDICATES FEW OR NO CLOUDS BELOW 12,000 FEET WITH NO
SIGNIFICANT WEATHER AND/OR OBSTRUCTIONS TO VISIBILITY.

* - THESE STATIONS ARE NOT NWS STATIONS...THUS NOT UNDER NWS
QUALITY CONTROL.  THEY ALSO DO NOT REPORT WEATHER SUCH
AS PRECIPITATION OR FOG.

IAZ001>003-012>014-020>022-031>034-043>046-051200-
   NORTHWEST IOWA

CITY           SKY/WX    TMP DP  RH WIND       PRES   REMARKS
CARROLL *      CLOUDY    66  66 100 E6        30.00R
CHEROKEE *     PTCLDY    61  61 100 CALM      30.02S
DENISON *      CLOUDY    66  64  94 E6        29.98R
LE MARS *      CLOUDY    66  63  88 NE5       30.02S
ORANGE CITY *  CLEAR     59  55  88 E3        30.03S
SHELDON *      CLEAR     57  55  94 E3        30.03R
SIOUX CITY     CLOUDY    68  63  84 NE6       30.00S
SPENCER        PTCLDY    58  53  84 E5        30.04R
STORM LAKE *   MOCLDY    61  59  94 E5        30.04R
$$

IAZ055>058-069>071-079>083-090>094-051200-
   SOUTHWEST IOWA

CITY           SKY/WX    TMP DP  RH WIND       PRES   REMARKS
ATLANTIC *     CLOUDY    68  68 100 SE6       29.98F
AUDUBON *      CLOUDY    66  63  88 CALM      30.00S
CLARINDA *     CLEAR     66  66 100 CALM      30.00R
COUNCIL BLFS * CLOUDY    66  66 100 SE5       29.99R FOG
CRESTON *      FOG       64  64 100 CALM      30.01F VSB 0
HARLAN  *      CLOUDY    66  66 100 S5        30.01F
LAMONI         MOCLDY    68  66  93 CALM      30.01R
RED OAK *      CLEAR     66  66 100 CALM      29.98S
SHENANDOAH *     N/A     68  68 100 CALM      29.98R
$$

IAZ047>049-059>061-072>074-084-051200-
   CENTRAL IOWA

CITY           SKY/WX    TMP DP  RH WIND       PRES   REMARKS
AMES           MOCLDY    65  63  93 CALM      30.01F
ANKENY *       CLOUDY    66  66 100 E5        30.01R
CHARITON *     MOCLDY    64  64 100 E5        30.01R
DES MOINES     CLOUDY    70  63  78 E5        30.00R
GRINNELL*      MOCLDY    64  63  94 NE3       30.03S
KNOXVILLE *    CLOUDY    66  63  88 E5        30.00R
MARSHALLTOWN   MOCLDY    62  57  83 E7        30.02S
PELLA *        PTCLDY    66  66 100 CALM      30.02S
PERRY *        CLOUDY    68  66  94 E6        30.00S
$$

IAZ004>006-015-016-023>025-035-036-051200-
   NORTH CENTRAL IOWA

CITY           SKY/WX    TMP DP  RH WIND       PRES   REMARKS
ALGONA *       CLEAR     61  55  82 E7        30.04S
CLARION *      CLEAR     59  55  88 E9        30.03S
ESTHERVILLE    MOCLDY    53  51  93 E3        30.04R
FORT DODGE *   PTCLDY    57  54  88 CALM      30.03S
MASON CITY     FOG       51  51 100 CALM      30.06F VSB 1/4
FOREST CITY *  CLEAR     50  50 100 CALM      30.05S
IOWA FALLS *     N/A     59  55  88 CALM      30.04F
$$

IAZ007>011-017>019-026>030-037>042-050>054-066-051200-
   NORTHEAST IOWA

CITY           SKY/WX    TMP DP  RH WIND       PRES   REMARKS
CEDAR RAPIDS   CLEAR     62  58  86 E6        30.03R
CHARLES CITY * CLEAR     54  54 100 NE6       30.05F
CLINTON *      CLEAR     55  54  94 CALM      30.06S
DECORAH *      CLEAR     55  55 100 CALM      30.05F
DUBUQUE        CLEAR     57  54  89 CALM      30.05S
MONTICELLO *   CLEAR     54  54 100 CALM      30.04S
OELWEIN *      CLEAR     55  54  94 NE6       30.05F
WATERLOO       PTCLDY    56  53  90 CALM      30.03S
$$

IAZ064-065-067-068-078-051200-
   EAST CENTRAL IOWA

CITY           SKY/WX    TMP DP  RH WIND       PRES   REMARKS
DAVENPORT      CLEAR     60  56  86 E5        30.03S
IOWA CITY      MOCLDY    66  58  75 NE5       30.03S
MT. PLEASANT * PTCLDY    66  63  88 CALM      30.02R
MUSCATINE *    MOCLDY    64  61  88 CALM      30.02S
QUAD CITIES    CLEAR     63  60  90 CALM      30.02R
$$

IAZ062-063-075>077-085>089-095>099-051200-
   SOUTHEAST IOWA

CITY           SKY/WX    TMP DP  RH WIND       PRES   REMARKS
BURLINGTON     CLEAR     67  63  87 E6        30.02R
FAIRFIELD *    CLOUDY    64  61  88 CALM      30.02S
FORT MADISON * CLEAR     63  63 100 CALM      30.03R
KEOKUK *       CLEAR     66  63  88 E5        30.01R
OSKALOOSA *    CLOUDY    66  64  94 E3        30.02S
CENTERVILLE *  CLEAR     64  64 100 SE7       30.02F
OTTUMWA        CLOUDY    66  64  93 E6        30.01R
WASHINGTON *   CLOUDY    64  64 100 CALM      30.03S
$$

ABBREVIATIONS USED IN REMARKS
   TC - TEMPERATURES IN CELSIUS
  WCI - WIND CHILL INDEX
   HX - HEAT INDEX
  VSB - VISIBILITY
$$




USA.gov is the U.S. government's official web portal to all federal, state and local government web resources and services.